Location: Stilling
(56.0622°N, 9.9882°E)
Time: 13:09:05
(UTC+00:00)

Cosmos 1782 - Pass Details

Date: 13 July 2020
Orbit: 536 x 553 km, 82.5° (Epoch: 06 August)

Event Time Altitude Azimuth Distance (km) Brightness Sun altitude
Rises 21:25:24 0° 352° (N) 2,705 7.9 -8.2°
Reaches altitude 10° 21:27:44 10° 3° (N) 1,809 6.5 -8.4°
Maximum altitude 21:31:21 33° 68° (ENE) 925 3.9 -8.6°
Enters shadow 21:34:54 10° 134° (SE) 1,781 4.8 -8.8°
